Вернуться в каталог

SL-8 R/B

АктивенLEO
NORAD 14241·ROCKET BODY·🇷🇺 Russia

Запущен Aug 3, 1983 с Plesetsk Cosmodrome

Loading…

Ближайшие Пролёты (ближайшие 24 часа)

TLE

СвежийSource: Space-Track

Эпоха: Sep 14, 2026, 17:51 UTC

1 14241U 83079B   26257.74378970  .00000137  00000-0  54413-4 0  9998
2 14241  74.0597 170.0397 0015813 122.8024 237.4656 14.37594788257373

Отслеживайте SL-8 R/B в реальном времени с AllMySat

Download on the App Store